[[{"header":{"parameterUnit":"m.s-1","parameterCategory":1,"la1":30.2991,"la2":30.254,"lo1":-89.0895,"lo2":-89.0444,"dy":0.0017,"dx":0.0017,"nx":28,"ny":28,"refTime":"2026-01-31T03:00:00:Z","depth":0,"parameterNumber":2,"parameterNumberName":"U-component_of_WINDS"},"data":[0,0,0,0,0,0,0,0,0,0,0,0,0,0,0,0,0,0,0,0,0,0,0,0,0,0,0,0,0,0,0,0,0,0,0,0,0,0,0,0,0,0,0,0,0,0,0,0,0,0,0,0,0,0,0,0,0,0,2.2625,2.2625,0,2.2653,2.2653,2.2654,2.2644,2.2643,2.2642,2.2642,2.2669,2.267,2.2672,0,0,0,0,0,0,0,0,0,0,0,0,0,2.2561,2.2562,2.2625,2.2625,2.2625,2.2653,2.2653,2.2654,2.2644,2.2643,2.2642,2.2641,2.2669,2.267,2.2672,0,0,0,0,0,0,0,0,0,0,0,0,0,2.2589,2.2562,2.2625,2.2624,2.2624,2.2653,2.2654,2.2654,2.2644,2.2643,2.2642,2.2641,2.2668,2.267,2.2672,2.2703,0,0,2.2678,2.2679,0,0,0,0,0,0,0,0,2.2587,2.2591,2.2623,2.2624,2.2624,2.2644,2.2641,2.267,2.2644,2.2636,2.2642,2.2641,2.2661,2.2664,2.2671,2.2704,2.2705,2.2678,2.2679,2.268,2.2681,0,0,0,0,0,0,0,2.2585,2.259,2.2636,2.2624,2.2624,2.2622,2.2625,2.2646,2.2654,2.2637,2.2636,2.264,2.2661,2.2669,2.2672,2.2706,2.2678,2.268,2.2681,2.2682,2.2767,2.2768,0,0,0,0,0,0,2.2583,2.2588,2.2635,2.2637,2.2603,2.2624,2.2627,2.2638,2.2653,2.2655,2.2641,2.2639,2.2666,2.2669,2.2673,2.271,2.268,2.2682,2.2683,2.2766,2.2767,2.2768,0,0,0,0,0,0,2.2582,2.2587,2.2634,2.2612,2.2618,2.2626,2.2639,2.264,2.2647,2.2656,2.2657,2.2647,2.2666,2.267,2.2696,2.2711,2.2683,2.2685,2.2765,2.2766,2.2768,2.2786,0,0,0,0,0,0,2.258,2.2587,2.2599,2.2613,2.2619,2.2657,2.264,2.2641,2.2651,2.265,2.2663,2.2664,2.2665,2.2693,2.2698,2.2713,2.2686,2.2763,2.2765,2.2767,2.2784,2.2788,2.2791,0,0,0,0,0,2.2578,2.2602,2.26,2.2605,2.2634,2.2658,2.2661,2.2663,2.2652,2.2664,2.267,2.2664,2.2709,2.2696,2.2701,2.2717,2.2762,2.2765,2.2767,2.2782,2.2787,2.2791,0,0,0,0,0,0,2.2589,2.2604,2.2601,2.2631,2.2643,2.2656,2.2671,2.2668,2.2682,2.268,2.2681,2.2684,2.2711,2.2717,2.2702,2.2749,2.2734,2.2738,2.2744,2.2748,2.2752,2.2749,2.2688,0,0,0,0,0,2.2595,2.2613,2.2625,2.265,2.2657,2.2663,2.2673,2.2673,2.2686,2.2691,2.2698,2.271,2.2727,2.2738,2.2754,2.2785,2.2788,2.2799,2.2803,2.2806,2.2809,2.2826,2.2831,2.2776,2.2776,2.2776,0,0,2.2607,2.2618,2.2629,2.2653,2.2662,2.2681,2.2667,2.2687,2.2701,2.2693,2.2719,2.2725,2.2738,2.2767,2.278,2.2773,2.2825,2.2809,2.2811,2.2812,2.2829,2.2834,2.2839,2.2778,2.2778,2.2777,0,0,2.2639,2.2649,2.2672,2.2682,2.2697,2.2701,2.2707,2.2721,2.2725,2.275,2.2746,2.2762,2.2791,2.2801,2.281,2.2848,2.2842,2.2853,2.2872,2.2889,2.2893,2.2897,2.291,2.2915,2.2856,2.2856,2.2856,0,2.2652,2.2681,2.2683,2.2704,2.2715,2.271,2.2733,2.2743,2.2762,2.2769,2.2761,2.2799,2.2807,2.2839,2.2848,2.2856,2.2862,2.2851,2.2892,2.2896,2.29,2.2912,2.2917,2.2857,2.2857,2.2857,2.2857,0,2.2696,2.2716,2.2732,2.2752,2.2765,2.2786,2.2792,2.2804,2.2804,2.2809,2.2836,2.2847,2.2865,2.2873,2.2872,2.2904,2.2899,2.2892,2.2877,2.2906,2.2918,2.2923,2.2859,2.2858,2.2858,2.2858,0,0,2.2734,2.2757,2.2762,2.2772,2.2789,2.2804,2.2826,2.2845,2.2856,2.287,2.2888,2.2914,2.2907,2.2917,2.2918,2.2933,2.2963,2.2924,2.2924,2.293,2.2999,2.3004,2.3009,2.296,2.2961,2.2962,2.2998,0,2.2767,2.2806,2.2809,2.2844,2.2862,2.2859,2.2878,2.2891,2.2897,2.2913,2.292,2.2938,2.2928,2.2934,2.2949,2.2956,2.2976,2.2953,2.2976,2.2977,2.2972,2.3016,2.302,2.3054,2.3002,2.3003,2.3004,0,2.281,2.2827,2.2863,2.2879,2.2887,2.2904,2.2922,2.2938,2.2953,2.2956,2.2968,2.2968,2.299,2.2975,2.3006,2.2991,2.3001,2.3005,2.3007,2.3008,2.2991,2.3017,2.3064,2.3069,2.3011,2.301,2.301,0,2.2833,2.2865,2.2891,2.2899,2.2918,2.2931,2.2939,2.2953,2.2965,2.2981,2.2988,2.3006,2.3016,2.303,2.3035,2.3024,2.3065,2.3051,2.3068,2.3068,2.3076,2.3075,2.3125,2.3084,2.3084,2.3084,2.3084,0,2.2869,2.2892,2.2902,2.2918,2.2943,2.2948,2.2972,2.298,2.2993,2.301,2.3009,2.3025,2.303,2.3048,2.3051,2.3076,2.3081,2.3084,2.3084,2.3083,2.3083,2.3089,2.3086,2.3085,2.3085,2.3085,2.3084,0,2.2899,2.2907,2.2935,2.2952,2.2957,2.2974,2.2988,2.3004,2.3011,2.3033,2.3038,2.3048,2.3068,2.3074,2.3098,2.3101,2.313,2.3129,2.3125,2.3125,2.3142,2.314,2.3196,2.3203,2.3159,2.3159,2.3159,0,2.2921,2.2938,2.2957,2.2969,2.2978,2.2998,2.301,2.3016,2.3028,2.3047,2.306,2.3081,2.3097,2.313,2.3139,2.3158,2.3157,2.3175,2.3159,2.3158,2.3156,2.3155,2.3156,2.3177,2.3178,2.3178,2.3179,0,2.2958,2.2962,2.298,2.3,2.3015,2.3031,2.3046,2.3055,2.3063,2.3078,2.3099,2.3112,2.3138,2.3158,2.3177,2.3186,2.3183,2.3184,2.3189,2.3187,2.3184,2.3186,2.3133,2.3182,2.3182,2.3182,2.3181,2.3181,2.2984,2.3,2.3016,2.3036,2.3049,2.3063,2.3079,2.3088,2.3106,2.3128,2.313,2.3153,2.3169,2.3195,2.3205,2.3222,2.3217,2.3224,2.3226,2.3227,2.3228,2.3183,2.3226,2.3226,2.3226,2.3226,2.3226,0,2.3021,2.3032,2.3051,2.3073,2.3089,2.3087,2.3104,2.3118,2.3138,2.3153,2.317,2.3195,2.3215,2.3227,2.3247,2.3259,2.3258,2.3264,2.3262,2.3265,2.3232,2.3226,2.3264,2.3264,2.3264,2.3264,2.3264,2.3264,2.3042,2.3069,2.3075,2.3107,2.3118,2.3141,2.3151,2.3165,2.3177,2.3205,2.3222,2.323,2.3243,2.3265,2.3283,2.3286,2.3293,2.3299,2.3301,2.3271,2.3267,2.3263,2.3257,2.3301,2.3301,2.3332,2.3332,2.3332]},{"header":{"parameterUnit":"m.s-1","parameterCategory":1,"la1":30.2991,"la2":30.254,"lo1":-89.0895,"lo2":-89.0444,"dy":0.0017,"dx":0.0017,"nx":28,"ny":28,"refTime":"2026-01-31T03:00:00:Z","depth":0,"parameterNumber":3,"parameterNumberName":"V-component_of_WINDS"},"data":[0,0,0,0,0,0,0,0,0,0,0,0,0,0,0,0,0,0,0,0,0,0,0,0,0,0,0,0,0,0,0,0,0,0,0,0,0,0,0,0,0,0,0,0,0,0,0,0,0,0,0,0,0,0,0,0,0,0,-4.9341,-4.9342,0,-4.9468,-4.9469,-4.947,-4.9463,-4.9462,-4.946,-4.9458,-4.9585,-4.9589,-4.9594,0,0,0,0,0,0,0,0,0,0,0,0,0,-4.9091,-4.9096,-4.9341,-4.9342,-4.9344,-4.9467,-4.9469,-4.9471,-4.9464,-4.9462,-4.9459,-4.9457,-4.9583,-4.9589,-4.9595,0,0,0,0,0,0,0,0,0,0,0,0,0,-4.9207,-4.9097,-4.9341,-4.9355,-4.9358,-4.9467,-4.9469,-4.9471,-4.9464,-4.9461,-4.9459,-4.9456,-4.9581,-4.9588,-4.9596,-4.9697,0,0,-4.9619,-4.9622,0,0,0,0,0,0,0,0,-4.92,-4.9216,-4.9352,-4.9355,-4.9358,-4.9447,-4.9427,-4.9547,-4.9465,-4.9424,-4.9458,-4.9455,-4.9541,-4.9551,-4.9581,-4.9703,-4.9708,-4.962,-4.9624,-4.9627,-4.963,0,0,0,0,0,0,0,-4.9192,-4.921,-4.9391,-4.9354,-4.9357,-4.9355,-4.9369,-4.945,-4.9496,-4.9427,-4.9427,-4.9442,-4.9542,-4.9574,-4.9584,-4.971,-4.9619,-4.9626,-4.9631,-4.9634,-4.9923,-4.9926,0,0,0,0,0,0,-4.9181,-4.9204,-4.9387,-4.9395,-4.9271,-4.9362,-4.9377,-4.9421,-4.9495,-4.9504,-4.9444,-4.9441,-4.9562,-4.9575,-4.9588,-4.9713,-4.9627,-4.9635,-4.9639,-4.992,-4.9924,-4.9928,0,0,0,0,0,0,-4.9176,-4.9198,-4.9382,-4.9299,-4.9323,-4.9369,-4.9419,-4.9425,-4.9457,-4.9508,-4.9516,-4.9469,-4.9561,-4.9578,-4.9671,-4.9718,-4.9638,-4.9645,-4.9917,-4.9921,-4.9926,-4.9963,0,0,0,0,0,0,-4.9169,-4.9196,-4.9235,-4.93,-4.9327,-4.9463,-4.9422,-4.9429,-4.947,-4.9468,-4.9533,-4.9541,-4.956,-4.966,-4.9678,-4.9727,-4.9651,-4.9913,-4.9919,-4.9924,-4.9958,-4.9968,-4.9978,0,0,0,0,0,-4.916,-4.9239,-4.9237,-4.9259,-4.9377,-4.9465,-4.9481,-4.9501,-4.9474,-4.9514,-4.9547,-4.9539,-4.9709,-4.9669,-4.969,-4.9741,-4.991,-4.9917,-4.9924,-4.9953,-4.9966,-4.9977,0,0,0,0,0,0,-4.9177,-4.9248,-4.9246,-4.935,-4.9402,-4.9464,-4.9515,-4.9514,-4.9574,-4.9569,-4.9591,-4.9605,-4.9699,-4.9729,-4.9683,-4.9844,-4.9806,-4.9818,-4.9821,-4.9834,-4.9844,-4.9835,-4.9657,0,0,0,0,0,-4.9193,-4.9259,-4.9318,-4.9403,-4.9429,-4.9468,-4.9507,-4.9518,-4.9573,-4.9594,-4.9634,-4.9686,-4.9752,-4.9794,-4.9857,-4.9962,-4.9977,-5.0008,-5.0018,-5.0025,-5.0035,-5.0094,-5.0109,-4.9951,-4.9951,-4.9951,0,0,-4.9226,-4.9273,-4.9314,-4.9408,-4.9449,-4.9518,-4.9486,-4.9559,-4.961,-4.9605,-4.9696,-4.9727,-4.9787,-4.9887,-4.9933,-4.9915,-5.0082,-5.0034,-5.004,-5.0046,-5.0103,-5.0118,-5.0132,-4.9956,-4.9955,-4.9954,0,0,-4.9322,-4.9364,-4.9441,-4.9484,-4.9548,-4.9573,-4.9592,-4.9655,-4.9676,-4.9768,-4.9766,-4.9826,-4.9938,-4.9982,-5.0018,-5.0132,-5.0127,-5.0152,-5.0203,-5.0261,-5.0273,-5.0284,-5.0326,-5.0341,-5.0161,-5.0162,-5.0162,0,-4.9355,-4.9459,-4.948,-4.9554,-4.9596,-4.9597,-4.9675,-4.9715,-4.9796,-4.9824,-4.9803,-4.9945,-4.9985,-5.0096,-5.0124,-5.0153,-5.0175,-5.0145,-5.027,-5.0281,-5.0292,-5.0332,-5.0348,-5.0164,-5.0164,-5.0164,-5.0163,0,-4.9497,-4.9568,-4.9622,-4.9703,-4.975,-4.9826,-4.9858,-4.9904,-4.9912,-4.9939,-5.0033,-5.0082,-5.0155,-5.0182,-5.0189,-5.0294,-5.0282,-5.0265,-5.0227,-5.031,-5.0348,-5.0363,-5.0168,-5.0167,-5.0166,-5.0166,0,0,-4.9606,-4.9699,-4.9718,-4.9756,-4.9827,-4.9883,-4.9958,-5.0032,-5.0071,-5.0127,-5.0191,-5.0286,-5.0272,-5.0314,-5.0326,-5.0376,-5.0465,-5.0354,-5.0356,-5.0374,-5.0585,-5.0598,-5.0616,-5.0462,-5.0465,-5.0468,-5.0581,0,-4.971,-4.9846,-4.9869,-4.9987,-5.0054,-5.0056,-5.0123,-5.0173,-5.0201,-5.0262,-5.0292,-5.036,-5.0335,-5.0361,-5.041,-5.0444,-5.0508,-5.0436,-5.0523,-5.0525,-5.0509,-5.0635,-5.0649,-5.0753,-5.0596,-5.0598,-5.06,0,-4.985,-4.9912,-5.0038,-5.0102,-5.0131,-5.019,-5.026,-5.0317,-5.0375,-5.0392,-5.044,-5.0446,-5.0525,-5.0483,-5.0592,-5.0543,-5.0579,-5.0601,-5.0606,-5.0615,-5.0568,-5.0649,-5.0786,-5.0802,-5.0623,-5.0622,-5.062,0,-4.9919,-5.0033,-5.0124,-5.0155,-5.0232,-5.0274,-5.0308,-5.0363,-5.0406,-5.0467,-5.0495,-5.0563,-5.0601,-5.0654,-5.0679,-5.0646,-5.0786,-5.0746,-5.0803,-5.0802,-5.0832,-5.083,-5.0979,-5.0855,-5.0854,-5.0854,-5.0854,0,-5.0033,-5.0111,-5.0156,-5.0212,-5.0299,-5.0324,-5.0409,-5.0441,-5.0491,-5.0553,-5.0558,-5.0616,-5.0645,-5.0707,-5.0727,-5.0815,-5.0832,-5.0847,-5.0852,-5.0848,-5.0846,-5.0873,-5.0866,-5.0858,-5.0857,-5.0857,-5.0856,0,-5.0125,-5.0159,-5.0258,-5.0323,-5.0342,-5.0403,-5.0458,-5.0513,-5.054,-5.0619,-5.0639,-5.0682,-5.0756,-5.0787,-5.0876,-5.089,-5.0991,-5.0989,-5.0972,-5.0974,-5.1029,-5.1023,-5.12,-5.1225,-5.1083,-5.1085,-5.1086,0,-5.0196,-5.0256,-5.0329,-5.0371,-5.0407,-5.0475,-5.052,-5.0547,-5.0593,-5.0664,-5.071,-5.0784,-5.0845,-5.0963,-5.1002,-5.1071,-5.1072,-5.1129,-5.1082,-5.1076,-5.1074,-5.1071,-5.1077,-5.1137,-5.1139,-5.114,-5.1141,0,-5.032,-5.0334,-5.0399,-5.047,-5.0524,-5.0581,-5.0637,-5.0671,-5.0706,-5.0758,-5.0834,-5.0881,-5.0974,-5.1048,-5.112,-5.1154,-5.1154,-5.1155,-5.1172,-5.1169,-5.1157,-5.1166,-5.0997,-5.1151,-5.115,-5.115,-5.1149,-5.1149,-5.0405,-5.0459,-5.0519,-5.0591,-5.0636,-5.0688,-5.0743,-5.0779,-5.0843,-5.0922,-5.0933,-5.1015,-5.1073,-5.1169,-5.1206,-5.1271,-5.1256,-5.128,-5.1286,-5.1292,-5.1296,-5.1146,-5.1283,-5.1283,-5.1283,-5.1283,-5.1282,0,-5.0529,-5.0568,-5.0635,-5.0714,-5.0771,-5.0767,-5.0829,-5.0876,-5.0949,-5.1003,-5.1063,-5.1152,-5.1224,-5.1269,-5.1342,-5.1384,-5.1386,-5.1403,-5.14,-5.1408,-5.1305,-5.1283,-5.14,-5.14,-5.14,-5.14,-5.14,-5.14,-5.0601,-5.0693,-5.0714,-5.0829,-5.0867,-5.0948,-5.0984,-5.1033,-5.1076,-5.1175,-5.1236,-5.1265,-5.1316,-5.1392,-5.1458,-5.147,-5.1497,-5.1514,-5.1525,-5.1427,-5.1415,-5.1404,-5.1384,-5.152,-5.152,-5.1623,-5.1624,-5.1625]}]]